Starlink 33886

operational
NORAD ID: 63681 Int'l Des: 2025-085 Owner: SPXS Country: US Constellation: starlink
LEOCIRCULAR

About Starlink 33886

Description loading...

Live Position

Loading 3D Globe...

Upcoming Passes

Altitude History

Altitude vs Time

uPlot chart will show altitude changes over time

Two-Line Element Set

1 63681U 25085T 26035.91761758 .00046211 00000-0 16775-2 0 9996
2 63681 43.0005 215.4904 0001868 274.9943 85.0695 15.27594590 43865
Epoch: Feb 4, 2026 • Age: 16 hours

Current Status

Altitude 485.7 km
Velocity 7.63 km/s
Sub-Earth Point 35.97°N, 8.4°W
Launch Date Apr 28, 2025
Age 0.7 years
Type internet

Technical Details

Classification Payload
Mass 575.00 kg
Dry Mass 530.00 kg
Total Mass 575.00 kg
Length 0.30 m
Diameter 4.10 m
Span 29.00 m
Shape Box + pan
Manufacturer SPXS
Bus Type Starlink V2MO
Phase Status In Orbit
Owner/State SPXS/US

Large Constellations

Loading constellations...